Location: Azalea Creek
(37.1280°N, 119.2623°W)
Time: 08:43:52
(UTC+00:00)

Tsikada Rocket - Pass Details

Date: 17 February 2020
Orbit: 959 x 1008 km, 82.9° (Epoch: 31 March)

Event Time Altitude Azimuth Distance (km) Brightness Sun altitude
Rises 03:19:07 0° 351° (N) 3,714 7.2 -20.8°
Reaches altitude 10° 03:21:38 10° 350° (N) 2,768 6.5 -21.3°
Maximum altitude 03:27:59 77° 266° (W) 1,032 4.2 -22.6°
Drops below altitude 10° 03:34:21 10° 181° (S) 2,774 6.4 -23.8°
Sets 03:36:53 0° 180° (S) 3,722 7.0 -24.4°
